GW1242 Weather Reports


Display with metric or nautical units.
time (UTC)temp
F
wind
direction
speed
MPH
gust
MPH
rain 1hr
in
rain 24hr
in
rain mn
in
humidity
%
barometer
mb
20260504081531 34 337 0.0 0.0 0.00 0.00 0.00 94 1112.6
20260504050118 38 337 0.0 0.0 0.00 0.00 0.00 91 1113.0
20260504041615 39 337 0.0 0.0 0.00 0.00 0.00 89 1113.0
20260504040047 39 337 0.0 0.0 0.00 0.00 0.00 88 1112.8
20260504034537 39 337 0.0 0.0 0.00 0.00 0.00 88 1112.7
20260504033038 40 337 0.0 0.0 0.00 0.00 0.00 88 1112.8
20260504031538 40 337 0.0 0.0 0.00 0.00 0.00 87 1112.7
20260504030041 40 337 0.0 0.0 0.00 0.00 0.00 85 1112.8
20260504024530 41 337 0.0 0.0 0.00 0.00 0.00 84 1112.8
20260504014538 46 337 0.0 0.0 0.00 0.00 0.00 74 1112.4
20260504010040 50 337 0.0 0.0 0.00 0.00 0.00 65 1112.6
20260504004539 52 337 0.0 0.0 0.00 0.00 0.00 59 1112.5
20260504003116 56 337 0.0 0.0 0.00 0.00 0.00 51 1112.4
20260504001537 61 337 0.0 0.0 0.00 0.00 0.00 46 1112.2
20260503234549 62 225 2.0 6.0 0.00 0.00 0.00 39 1112.2
20260503233038 63 225 3.0 7.0 0.00 0.00 0.00 38 1112.3
20260503231549 62 248 3.0 10.0 0.00 0.00 0.00 40 1114.8
20260503231540 62 224 3.0 8.0 0.00 0.00 0.00 39 1115.0
20260503191540 61 225 3.0 12.0 0.00 0.00 0.00 41 1115.3
20260503190030 62 251 4.0 8.0 0.00 0.00 0.00 41 1115.4
20260503184539 61 273 0.0 5.0 0.00 0.00 0.00 41 1115.6
20260503183107 60 244 4.0 11.0 0.00 0.00 0.00 42 1116.0